{"data":{"norad_id":61187,"intl_designator":"2024-168C","name":"BEIDOU-3 M27 (C49)","alt_names":[],"object_type":"PAYLOAD","status":"ACTIVE","operator":null,"country":"PRC","launch_date":"2024-09-19","launch_site_code":"XICLF","launch_vehicle":null,"mission":null,"orbit_class":"UNKNOWN","rcs_meters":null,"size_class":null,"mass_kg":null,"dimensions":null,"purposes":["nav"],"wikipedia_slug":null,"has_3d_model":false,"image_url":null,"decayed_at":null,"tle_current":{"epoch":"2026-05-24T15:13:32.052864Z","epoch_age_seconds":96893,"freshness":"FRESH","line1":"1 61187U 24168C   26144.63439876 -.00000085  00000+0  00000+0 0  9999","line2":"2 61187  54.4902 303.0427 0002125  47.5445 314.5528  1.86230188  8820","mean_motion":1.86230188,"eccentricity":0.0002125,"inclination_deg":54.4902,"raan_deg":303.0427,"arg_perigee_deg":47.5445,"mean_anomaly_deg":314.5528,"bstar":0,"rev_number":882,"period_min":773.23661403381,"perigee_km":21522.202599141,"apogee_km":21534.062763756,"semimajor_km":27906.269681448,"source":"CELESTRAK","updated_at":"2026-05-25T13:38:24.225165Z"}}}